Tracking 18980 objects as of 21-Feb-2018
HD Live streaming from Space Station
objects crossing your sky now

COSMOS 1157

Track COSMOS 1157 now!
10-day predictions
COSMOS 1157 is classified as:


NORAD ID: 11692
Int'l Code: 1980-012B
Perigee: 1,421.7 km
Apogee: 1,483.9 km
Inclination: 74.0 °
Period: 114.8 minutes
Semi major axis: 7823 km
RCS: 0.711 m2 (medium)
Launch date: February 11, 1980
Source: Commonwealth of Independent States (former USSR) (CIS)
Launch site: PLESETSK MISSILE AND SPACE COMPLEX (PKMTR)
aabbcc
Your satellite tracking list
Your tracking list is empty




NASA's NSSDC Master Catalog

Two Line Element Set (TLE):
1 11692U 80012B   18052.03513731 -.00000025  00000-0 -52944-4 0  9996
2 11692  74.0181 243.0850 0039763 320.7159 214.6466 12.54519629741677
Source of the keplerian elements: AFSPC